Time,TemperatureF,DewpointF,PressureIn,WindDirection,WindDirectionDegrees,WindSpeedMPH,WindSpeedGustMPH,Humidity,HourlyPrecipIn,Conditions,Clouds,dailyrainin,SoftwareType,DateUTC
2013-04-22 00:00:00,41.9,37.7,28.99,NNE,27,5.0,13.0,85,0.00,,,0.00,WeatherDisplay:10.37,2013-04-22 05:00:00,
2013-04-22 00:15:00,41.7,37.8,28.99,NNE,27,7.0,12.0,86,0.00,,,0.00,WeatherDisplay:10.37,2013-04-22 05:15:00,
2013-04-22 00:30:00,41.7,37.8,29.00,NE,45,7.0,14.0,86,0.00,,,0.00,WeatherDisplay:10.37,2013-04-22 05:30:00,
2013-04-22 00:45:00,41.0,37.7,28.99,NE,45,8.0,13.0,88,0.00,,,0.00,WeatherDisplay:10.37,2013-04-22 05:45:00,
2013-04-22 01:00:00,40.1,37.1,29.00,NE,43,9.0,15.0,89,0.00,,,0.00,WeatherDisplay:10.37,2013-04-22 06:00:00,
2013-04-22 01:15:00,39.6,36.6,29.00,NE,45,8.0,13.0,89,0.00,,,0.00,WeatherDisplay:10.37,2013-04-22 06:15:00,
2013-04-22 01:30:00,39.4,36.7,28.98,NE,43,5.0,13.0,90,0.00,,,0.00,WeatherDisplay:10.37,2013-04-22 06:30:00,
2013-04-22 01:45:00,39.0,36.3,28.98,NNE,22,9.0,13.0,90,0.00,,,0.00,WeatherDisplay:10.37,2013-04-22 06:45:00,
2013-04-22 02:00:00,39.0,36.6,28.98,NE,43,8.0,13.0,91,0.00,,,0.00,WeatherDisplay:10.37,2013-04-22 07:00:00,
2013-04-22 02:15:00,38.8,36.2,28.98,NNE,32,7.0,12.0,90,0.00,,,0.00,WeatherDisplay:10.37,2013-04-22 07:15:00,
2013-04-22 02:30:00,38.7,36.3,28.97,NNE,25,8.0,13.0,91,0.00,,,0.00,WeatherDisplay:10.37,2013-04-22 07:30:00,
2013-04-22 02:45:00,38.7,36.3,28.97,NE,41,6.0,11.0,91,0.00,,,0.00,WeatherDisplay:10.37,2013-04-22 07:45:00,
2013-04-22 03:00:00,38.5,36.1,28.95,NE,42,8.0,11.0,91,0.00,,,0.00,WeatherDisplay:10.37,2013-04-22 08:00:00,
2013-04-22 03:15:00,38.5,36.4,28.95,NE,43,6.0,10.0,92,0.00,,,0.00,WeatherDisplay:10.37,2013-04-22 08:15:00,
2013-04-22 03:30:00,38.5,36.4,28.95,NE,42,7.0,11.0,92,0.00,,,0.00,WeatherDisplay:10.37,2013-04-22 08:30:00,
2013-04-22 03:45:00,38.5,36.6,28.94,NE,49,5.0,9.0,93,0.00,,,0.00,WeatherDisplay:10.37,2013-04-22 08:45:00,
2013-04-22 04:00:00,38.7,36.8,28.94,NE,45,7.0,11.0,93,0.00,,,0.00,WeatherDisplay:10.37,2013-04-22 09:00:00,
2013-04-22 04:15:00,38.5,36.4,28.93,NE,43,10.0,15.0,92,0.00,,,0.00,WeatherDisplay:10.37,2013-04-22 09:15:00,
2013-04-22 04:30:00,38.3,36.2,28.94,NE,45,7.0,15.0,92,0.00,,,0.00,WeatherDisplay:10.37,2013-04-22 09:30:00,
2013-04-22 04:45:00,37.9,35.8,28.94,NE,56,8.0,17.0,92,0.00,,,0.00,WeatherDisplay:10.37,2013-04-22 09:45:00,
2013-04-22 05:00:00,37.8,35.9,28.94,NE,45,8.0,13.0,93,0.00,,,0.00,WeatherDisplay:10.37,2013-04-22 10:00:00,
2013-04-22 05:15:00,37.8,35.9,28.94,NE,49,8.0,11.0,93,0.00,,,0.00,WeatherDisplay:10.37,2013-04-22 10:15:00,
2013-04-22 05:30:00,37.6,35.7,28.94,NE,56,9.0,14.0,93,0.00,,,0.00,WeatherDisplay:10.37,2013-04-22 10:30:00,
2013-04-22 05:45:00,37.4,35.6,28.93,NE,45,8.0,13.0,93,0.00,,,0.00,WeatherDisplay:10.37,2013-04-22 10:45:00,
2013-04-22 06:00:00,37.2,35.4,28.92,NE,45,9.0,20.0,93,0.00,,,0.00,WeatherDisplay:10.37,2013-04-22 11:00:00,
2013-04-22 06:15:00,37.0,35.4,28.90,NE,45,15.0,21.0,94,0.00,,,0.00,WeatherDisplay:10.37,2013-04-22 11:15:00,
2013-04-22 06:30:00,36.9,35.3,28.92,NE,50,12.0,20.0,94,0.00,,,0.00,WeatherDisplay:10.37,2013-04-22 11:30:00,
2013-04-22 06:45:00,36.5,34.9,28.92,NE,48,10.0,21.0,94,0.00,,,0.00,WeatherDisplay:10.37,2013-04-22 11:45:00,
2013-04-22 07:00:00,36.3,34.8,28.92,NE,49,13.0,20.0,94,0.00,,,0.00,WeatherDisplay:10.37,2013-04-22 12:00:00,
2013-04-22 07:15:00,36.0,34.7,28.92,NE,49,15.0,21.0,95,0.00,,,0.00,WeatherDisplay:10.37,2013-04-22 12:15:00,
2013-04-22 07:30:00,35.8,34.5,28.94,NE,45,14.0,21.0,95,0.00,,,0.00,WeatherDisplay:10.37,2013-04-22 12:30:00,
2013-04-22 07:45:00,35.6,34.3,28.94,NE,45,12.0,20.0,95,0.00,,,0.00,WeatherDisplay:10.37,2013-04-22 12:45:00,
2013-04-22 08:00:00,35.4,34.1,28.93,NE,49,10.0,20.0,95,0.00,,,0.00,WeatherDisplay:10.37,2013-04-22 13:00:00,
2013-04-22 08:15:00,35.2,34.2,28.93,NE,53,13.0,20.0,96,0.00,,,0.00,WeatherDisplay:10.37,2013-04-22 13:15:00,
2013-04-22 08:30:00,35.2,34.2,28.93,ENE,58,9.0,18.0,96,0.00,,,0.00,WeatherDisplay:10.37,2013-04-22 13:30:00,
2013-04-22 08:45:00,34.9,34.4,28.93,NE,52,12.0,17.0,98,0.00,,,0.00,WeatherDisplay:10.37,2013-04-22 13:45:00,
2013-04-22 09:00:00,34.7,34.4,28.92,NE,45,8.0,15.0,99,0.00,RA,,0.01,WeatherDisplay:10.37,2013-04-22 14:00:00,
2013-04-22 09:15:00,34.7,34.4,28.94,NE,50,8.0,17.0,99,0.00,RA,,0.04,WeatherDisplay:10.37,2013-04-22 14:15:00,
2013-04-22 09:30:00,34.7,34.4,28.95,NNE,27,2.0,15.0,99,0.00,,,0.04,WeatherDisplay:10.37,2013-04-22 14:30:00,
2013-04-22 09:45:00,34.3,34.0,28.95,NNE,26,10.0,17.0,99,0.00,RA,,0.07,WeatherDisplay:10.37,2013-04-22 14:45:00,
2013-04-22 10:00:00,33.8,33.5,28.94,NE,34,14.0,18.0,99,0.00,RA,,0.11,WeatherDisplay:10.37,2013-04-22 15:00:00,
2013-04-22 10:15:00,33.4,33.2,28.95,NNE,30,12.0,18.0,99,0.00,RA,,0.13,WeatherDisplay:10.37,2013-04-22 15:15:00,
2013-04-22 10:30:00,33.3,33.0,28.94,NE,40,12.0,17.0,99,0.00,,,0.14,WeatherDisplay:10.37,2013-04-22 15:30:00,
2013-04-22 10:45:00,33.6,33.4,28.92,NNE,23,16.0,23.0,99,0.00,,,0.14,WeatherDisplay:10.37,2013-04-22 15:45:00,
2013-04-22 11:00:00,33.8,33.5,28.94,NNE,24,9.0,21.0,99,0.00,RA,,0.15,WeatherDisplay:10.37,2013-04-22 16:00:00,
2013-04-22 11:15:00,34.2,33.9,28.94,NNE,19,10.0,17.0,99,0.00,,,0.15,WeatherDisplay:10.37,2013-04-22 16:15:00,
2013-04-22 11:30:00,34.3,33.8,28.95,NNE,13,10.0,17.0,98,0.00,,,0.15,WeatherDisplay:10.37,2013-04-22 16:30:00,
2013-04-22 11:45:00,34.5,34.0,28.94,NNE,18,8.0,16.0,98,0.00,RA,,0.17,WeatherDisplay:10.37,2013-04-22 16:45:00,
2013-04-22 12:00:00,34.5,34.3,28.93,North,10,12.0,16.0,99,0.00,RA,,0.20,WeatherDisplay:10.37,2013-04-22 17:00:00,
2013-04-22 12:15:00,34.8,34.3,28.92,NNE,33,13.0,20.0,98,0.00,,,0.20,WeatherDisplay:10.37,2013-04-22 17:15:00,
2013-04-22 12:30:00,34.9,34.4,28.92,NE,36,13.0,21.0,98,0.00,,,0.20,WeatherDisplay:10.37,2013-04-22 17:30:00,
2013-04-22 12:45:00,34.9,34.1,28.91,NNE,24,15.0,21.0,97,0.00,,,0.20,WeatherDisplay:10.37,2013-04-22 17:45:00,
2013-04-22 13:00:00,34.7,33.4,28.91,NNE,32,17.0,25.0,95,0.00,,,0.20,WeatherDisplay:10.37,2013-04-22 18:00:00,
2013-04-22 13:15:00,34.7,33.4,28.91,NNE,17,13.0,23.0,95,0.00,,,0.20,WeatherDisplay:10.37,2013-04-22 18:15:00,
2013-04-22 13:30:00,34.5,33.2,28.90,NNE,23,13.0,21.0,95,0.00,,,0.20,WeatherDisplay:10.37,2013-04-22 18:30:00,
2013-04-22 13:45:00,34.5,33.0,28.91,NNE,12,5.0,22.0,94,0.00,,,0.20,WeatherDisplay:10.37,2013-04-22 18:45:00,
2013-04-22 14:00:00,34.0,32.7,28.93,North,1,5.0,18.0,95,0.00,,,0.20,WeatherDisplay:10.37,2013-04-22 19:00:00,
2013-04-22 14:15:00,33.6,32.1,28.93,North,3,15.0,23.0,94,0.00,,,0.20,WeatherDisplay:10.37,2013-04-22 19:15:00,
2013-04-22 14:30:00,33.4,31.6,28.92,NNE,16,10.0,24.0,93,0.00,,,0.20,WeatherDisplay:10.37,2013-04-22 19:30:00,
2013-04-22 14:45:00,33.3,32.0,28.92,NNE,20,9.0,23.0,95,0.00,,,0.20,WeatherDisplay:10.37,2013-04-22 19:45:00,
2013-04-22 15:00:00,32.7,31.4,28.93,North,4,7.0,20.0,95,0.00,,,0.20,WeatherDisplay:10.37,2013-04-22 20:00:00,
2013-04-22 15:15:00,32.4,31.6,28.95,NNE,23,2.0,20.0,97,0.00,,,0.20,WeatherDisplay:10.37,2013-04-22 20:15:00,
2013-04-22 15:30:00,32.2,31.7,28.95,North,11,3.0,8.0,98,0.00,,,0.20,WeatherDisplay:10.37,2013-04-22 20:30:00,
2013-04-22 15:45:00,32.0,31.5,28.96,North,0,3.0,21.0,98,0.00,,,0.20,WeatherDisplay:10.37,2013-04-22 20:45:00,
2013-04-22 16:00:00,31.8,31.6,28.95,NNW,338,3.0,17.0,99,0.00,,,0.20,WeatherDisplay:10.37,2013-04-22 21:00:00,
2013-04-22 16:15:00,31.6,31.4,28.95,North,2,12.0,18.0,99,0.00,,,0.20,WeatherDisplay:10.37,2013-04-22 21:15:00,
2013-04-22 16:30:00,31.6,31.4,28.94,North,8,8.0,23.0,99,0.00,,,0.20,WeatherDisplay:10.37,2013-04-22 21:30:00,
2013-04-22 16:45:00,31.8,31.6,28.94,NNE,12,6.0,21.0,99,0.00,,,0.20,WeatherDisplay:10.37,2013-04-22 21:45:00,
2013-04-22 17:00:00,31.8,31.6,28.94,North,7,12.0,22.0,99,0.00,,,0.20,WeatherDisplay:10.37,2013-04-22 22:00:00,
2013-04-22 17:15:00,32.0,31.8,28.95,North,349,13.0,26.0,99,0.00,,,0.20,WeatherDisplay:10.37,2013-04-22 22:15:00,
2013-04-22 17:30:00,32.2,31.9,28.95,North,353,5.0,17.0,99,0.00,,,0.20,WeatherDisplay:10.37,2013-04-22 22:30:00,
2013-04-22 17:45:00,32.4,32.2,28.97,North,4,3.0,9.0,99,0.00,,,0.20,WeatherDisplay:10.37,2013-04-22 22:45:00,
2013-04-22 18:00:00,32.7,32.5,28.98,North,352,3.0,7.0,99,0.00,,,0.20,WeatherDisplay:10.37,2013-04-22 23:00:00,
2013-04-22 18:15:00,33.1,32.8,28.98,NNW,346,3.0,10.0,99,0.00,,,0.20,WeatherDisplay:10.37,2013-04-22 23:15:00,
2013-04-22 18:30:00,33.1,32.8,28.97,NNW,347,3.0,15.0,99,0.00,,,0.20,WeatherDisplay:10.37,2013-04-22 23:30:00,
2013-04-22 18:45:00,32.9,32.7,28.97,NNE,12,6.0,17.0,99,0.00,,,0.20,WeatherDisplay:10.37,2013-04-22 23:45:00,
2013-04-22 19:00:00,32.7,32.5,28.99,North,353,3.0,15.0,99,0.00,,,0.20,WeatherDisplay:10.37,2013-04-23 00:00:00,
2013-04-22 19:15:00,32.4,32.2,29.00,NNW,346,6.0,12.0,99,0.00,,,0.20,WeatherDisplay:10.37,2013-04-23 00:15:00,
2013-04-22 19:30:00,32.0,31.8,29.02,North,0,5.0,10.0,99,0.00,,,0.20,WeatherDisplay:10.37,2013-04-23 00:30:00,
2013-04-22 19:45:00,31.6,31.4,29.02,NNW,347,3.0,11.0,99,0.00,,,0.20,WeatherDisplay:10.37,2013-04-23 00:45:00,
2013-04-22 20:00:00,31.5,31.2,29.04,North,1,3.0,9.0,99,0.00,,,0.20,WeatherDisplay:10.37,2013-04-23 01:00:00,
2013-04-22 20:15:00,31.0,30.7,29.04,NNW,330,0.0,11.0,99,0.00,,,0.20,WeatherDisplay:10.37,2013-04-23 01:15:00,
2013-04-22 20:30:00,30.7,30.5,29.04,NW,315,0.0,0.0,99,0.00,,,0.20,WeatherDisplay:10.37,2013-04-23 01:30:00,
2013-04-22 20:45:00,30.2,30.0,29.04,NW,315,0.0,0.0,99,0.00,,,0.20,WeatherDisplay:10.37,2013-04-23 01:45:00,
2013-04-22 21:00:00,30.0,29.8,29.06,NW,315,0.0,0.0,99,0.00,,,0.20,WeatherDisplay:10.37,2013-04-23 02:00:00,
2013-04-22 21:15:00,30.0,29.8,29.07,NW,315,0.0,0.0,99,0.00,,,0.20,WeatherDisplay:10.37,2013-04-23 02:15:00,
2013-04-22 21:30:00,30.0,29.8,29.07,NW,315,0.0,0.0,99,0.00,,,0.20,WeatherDisplay:10.37,2013-04-23 02:30:00,
2013-04-22 21:45:00,29.8,29.6,29.07,NW,315,0.0,0.0,99,0.00,,,0.20,WeatherDisplay:10.37,2013-04-23 02:45:00,
2013-04-22 22:00:00,29.8,29.6,29.08,NW,315,0.0,0.0,99,0.00,,,0.20,WeatherDisplay:10.37,2013-04-23 03:00:00,
2013-04-22 22:15:00,29.6,29.3,29.08,NW,315,0.0,0.0,99,0.00,,,0.20,WeatherDisplay:10.37,2013-04-23 03:15:00,
2013-04-22 22:30:00,29.1,28.6,29.08,NW,315,0.0,0.0,98,0.00,,,0.20,WeatherDisplay:10.37,2013-04-23 03:30:00,
2013-04-22 22:45:00,28.6,28.1,29.07,NW,315,0.0,0.0,98,0.00,,,0.20,WeatherDisplay:10.37,2013-04-23 03:45:00,
2013-04-22 23:00:00,28.0,27.8,29.09,NW,315,0.0,0.0,99,0.00,,,0.20,WeatherDisplay:10.37,2013-04-23 04:00:00,
2013-04-22 23:15:00,27.5,27.0,29.08,NW,315,0.0,0.0,98,0.00,RA,,0.21,WeatherDisplay:10.37,2013-04-23 04:15:00,
2013-04-22 23:30:00,27.3,26.6,29.10,NW,315,0.0,0.0,97,0.00,,,0.21,WeatherDisplay:10.37,2013-04-23 04:30:00,
2013-04-22 23:45:00,27.3,26.6,29.11,NW,315,0.0,0.0,97,0.00,,,0.21,WeatherDisplay:10.37,2013-04-23 04:45:00,